{"data":{"norad_id":58739,"intl_designator":"2024-005M","name":"STARLINK-31042","alt_names":[],"object_type":"PAYLOAD","status":"ACTIVE","operator":null,"country":"US","launch_date":"2024-01-07","launch_site_code":"AFETR","launch_vehicle":null,"mission":null,"orbit_class":"UNKNOWN","rcs_meters":null,"size_class":null,"mass_kg":null,"dimensions":null,"purposes":["comms"],"wikipedia_slug":null,"has_3d_model":false,"image_url":null,"decayed_at":null,"tle_current":{"epoch":"2026-05-25T01:26:20.366880Z","epoch_age_seconds":66532,"freshness":"FRESH","line1":"1 58739U 24005M   26145.05995795  .00000510  00000+0  28077-4 0  9993","line2":"2 58739  43.0035 148.4326 0001101 266.3014  93.7712 15.27572437132123","mean_motion":15.27572437,"eccentricity":0.0001101,"inclination_deg":43.0035,"raan_deg":148.4326,"arg_perigee_deg":266.3014,"mean_anomaly_deg":93.7712,"bstar":2.8077e-5,"rev_number":13212,"period_min":94.267215427637,"perigee_km":482.31632339332,"apogee_km":483.82716155841,"semimajor_km":6861.2087424759,"source":"CELESTRAK","updated_at":"2026-05-25T13:38:18.720962Z"}}}